Helicity
55 50 43 37 34 44 69 79 181 95 81 204 149 98 68 32 69 34 60 80 109 124 124 126 146 152 179 64 31 113 122 114 80 30 11 15 80 96 113 232 265 268 229 138
58 51 43 37 38 59 65 88 122 77 89 158 130 121 85 73 76 42 50 68 71 72 68 97 121 134 122 95 95 151 103 232 95 129 126 147 125 194 251 170 155 206 250 188
62 51 45 42 38 50 89 109 137 126 90 85 102 152 109 92 49 60 66 52 73 44 30 38 45 60 46 61 99 100 111 139 201 168 144 186 210 164 94 116 223 193 191 160
67 55 48 49 51 62 106 124 111 116 97 124 116 96 98 52 75 42 62 68 70 99 86 107 123 103 82 61 90 106 218 225 219 206 185 204 181 157 129 104 112 160 95 102
71 63 61 61 66 102 120 114 97 119 114 102 84 42 92 71 66 74 61 63 83 93 125 117 159 165 163 149 140 153 158 199 185 143 178 153 116 125 151 153 120 112 92 76
57 62 66 73 85 130 138 125 124 106 90 124 128 100 77 61 55 52 27 40 62 74 41 112 123 130 112 135 147 158 172 205 213 90 80 93 124 120 83 104 88 71 84 103
52 57 68 71 67 113 132 125 138 118 96 106 91 81 74 55 52 63 62 43 76 18 49 31 29 55 52 79 111 127 142 165 195 171 130 189 165 92 129 88 110 92 52 78
56 59 68 69 60 87 132 130 141 132 95 87 68 45 45 35 32 45 46 -7 4 19 73 106 123 145 183 148 118 129 172 154 199 242 196 162 65 108 190 140 52 75 121 115
58 61 66 63 60 68 149 124 138 154 105 69 62 61 61 92 104 77 82 68 103 114 108 143 184 216 217 220 203 96 79 109 209 269 278 252 155 104 70 114 71 153 149 128
58 56 52 56 58 61 144 107 136 168 119 80 109 111 103 84 91 94 81 70 88 96 146 199 207 190 201 237 212 193 192 212 204 201 245 266 213 134 134 139 240 69 82 89
59 61 56 60 65 69 134 114 114 160 146 105 94 100 95 94 128 130 87 92 87 144 160 172 166 198 168 202 203 218 212 212 246 221 212 226 158 134 204 205 70 96 112 112
72 68 64 61 58 68 97 88 116 156 132 101 77 23 51 121 173 154 123 116 58 69 91 93 108 185 228 201 233 161 228 283 249 258 281 191 151 171 168 145 145 137 161 135
92 77 69 61 56 66 82 93 106 120 88 52 99 134 209 206 171 194 190 164 189 136 114 86 106 115 36 214 182 180 174 146 187 197 163 149 141 99 83 79 180 68 121 139
155 92 69 63 55 60 66 86 99 119 88 82 80 170 181 228 188 134 204 225 166 119 119 155 195 209 172 197 189 159 137 122 146 132 166 143 125 117 151 83 116 137 95 98
179 122 79 19 35 47 61 75 86 123 154 104 80 34 31 155 137 209 155 138 100 148 179 206 201 208 224 224 207 188 145 203 256 232 161 148 89 13 101 97 114 130 145 95
140 99 79 51 32 50 67 6 26 209 253 132 130 50 133 148 169 171 175 202 164 192 196 207 210 232 190 191 227 188 229 238 273 191 222 155 111 54 94 73 66 80 75 98
139 95 71 61 39 73 117 83 39 47 145 215 169 138 117 117 159 166 184 152 202 198 190 199 189 186 176 252 261 304 142 179 138 136 133 128 120 148 81 62 88 112 109 121
150 108 103 72 45 49 32 17 16 -1 4 98 162 137 102 85 106 114 126 133 125 131 147 180 205 218 229 225 310 156 99 29 41 74 106 117 83 84 77 52 51 74 85 83
179 121 127 50 46 56 54 16 24 110 114 81 157 141 57 126 152 147 126 116 81 94 122 128 117 138 227 280 119 37 30 63 25 45 49 34 41 32 53 57 -51 99 102 85
163 107 78 38 74 135 68 70 69 97 90 127 150 146 124 90 74 84 86 77 89 88 64 98 78 153 146 97 56 81 70 52 49 24 21 7 10 32 14 -79 -25 -64 -58 -54
83 86 80 74 46 81 115 79 103 126 149 141 187 160 172 101 84 68 40 58 64 48 31 96 112 123 111 123 90 58 43 59 75 80 77 83 70 -96 -73 -40 -11 -53 -61 -83
174 150 73 51 68 64 86 123 123 106 115 156 150 187 177 135 94 79 53 54 71 45 124 115 116 168 145 98 51 31 38 64 86 97 93 57 58 59 33 35 55 57 80 179
75 79 83 80 89 76 97 126 234 160 127 123 176 223 213 161 127 100 64 51 83 148 145 161 171 137 80 55 37 29 46 93 108 91 97 92 89 92 78 74 84 157 215 197
145 131 139 114 125 89 87 89 105 124 97 128 169 185 137 177 133 109 88 85 146 155 174 174 158 89 50 44 31 40 72 97 72 90 113 108 97 107 138 151 164 181 221 221
202 146 152 116 124 51 102 61 75 107 128 180 225 203 147 138 118 92 129 144 161 156 109 124 101 53 50 34 31 65 68 89 95 108 116 109 110 137 168 158 151 152 164 183
155 168 161 135 109 39 66 60 89 87 144 217 199 164 147 135 138 153 148 212 189 122 139 104 61 62 44 26 42 36 71 76 58 52 37 44 68 71 62 108 116 108 121 148
154 113 116 100 108 63 60 43 56 102 154 157 150 122 112 127 134 188 196 208 171 148 107 71 78 62 41 41 37 68 53 6 12 35 26 31 36 63 89 98 69 83 84 89
Wind_Speed
25 24 23 26 25 22 21 24 30 30 13 30 35 41 36 40 42 37 40 38 41 42 42 44 44 40 44 47 50 53 52 59 72 70 65 59 57 60 56 69 75 72 88 108
24 24 24 24 22 17 18 22 27 22 22 38 41 42 49 46 48 44 41 41 36 39 47 53 50 46 53 58 57 57 59 58 81 78 58 50 48 44 55 57 62 86 90 96
20 22 23 23 21 18 22 25 30 29 28 32 39 41 44 50 45 51 57 56 58 61 59 49 55 63 60 62 71 66 60 59 64 81 75 73 85 80 67 67 81 86 90 101
20 20 21 21 21 19 23 29 33 30 41 41 41 42 44 49 52 46 42 48 49 52 56 61 61 60 62 56 63 51 55 68 73 80 77 77 85 89 85 87 87 92 109 102
20 18 17 18 18 17 29 31 32 32 34 31 37 48 45 48 47 46 47 48 47 47 50 52 66 68 66 62 60 57 54 71 74 94 84 86 100 92 85 87 94 95 103 116
21 19 18 17 16 20 30 32 31 32 35 38 40 42 45 49 49 53 54 58 63 61 59 62 66 65 64 61 64 66 64 67 73 99 81 89 105 91 80 81 80 78 96 94
22 21 21 20 19 25 30 33 32 39 50 41 43 44 45 52 55 62 62 62 62 54 63 74 72 67 66 63 60 52 62 64 67 88 88 103 82 66 63 69 76 74 89 94
25 22 22 23 24 25 34 31 36 40 53 46 48 54 58 61 62 66 67 67 65 64 65 69 61 57 59 59 54 51 46 56 69 76 84 94 108 82 78 80 97 82 81 90
29 26 24 23 24 24 33 37 35 43 53 56 50 52 52 60 63 66 60 58 54 45 50 54 66 66 58 57 54 37 36 40 53 64 79 91 80 82 59 53 91 73 78 76
31 29 26 25 26 26 33 39 32 41 54 54 46 48 52 47 46 54 56 51 42 27 42 54 61 70 59 71 69 60 54 52 58 65 74 80 69 73 61 80 84 85 64 63
31 30 29 28 30 31 33 41 31 38 55 63 58 56 55 50 44 49 42 52 42 40 45 51 55 60 56 63 59 61 59 60 62 62 70 79 58 70 64 72 83 78 74 64
32 32 32 33 34 34 33 47 39 42 59 63 58 66 48 45 41 49 45 42 40 34 37 41 46 56 52 55 69 46 64 51 61 53 67 67 71 70 73 78 84 91 81 77
39 38 37 38 38 37 36 45 41 45 64 82 74 58 43 27 34 36 44 43 38 43 42 54 52 61 49 60 68 71 67 62 70 77 75 69 89 96 101 101 90 113 90 89
40 42 44 47 47 45 44 48 44 44 56 68 74 51 58 36 24 27 31 30 35 39 40 44 52 57 45 64 66 73 61 71 70 79 72 94 91 87 81 94 88 82 94 86
45 44 46 49 51 51 53 59 52 39 45 57 52 55 48 34 16 15 23 25 32 39 46 46 51 48 51 60 67 58 44 50 71 87 89 85 106 115 96 96 92 81 81 92
54 57 59 56 53 51 49 54 51 26 32 57 65 59 48 38 26 24 27 28 34 36 40 43 44 42 44 53 55 42 47 61 47 56 52 70 53 113 106 90 103 102 85 73
59 63 63 63 60 53 46 41 30 26 20 46 56 56 44 36 35 34 33 30 34 33 40 44 46 43 33 47 50 65 75 55 68 67 71 75 72 75 92 88 90 90 90 80
60 61 62 65 66 72 77 84 85 77 58 42 49 47 41 26 30 30 24 25 21 28 32 36 37 34 32 39 25 48 55 34 33 40 46 43 53 71 85 95 97 97 95 95
58 58 63 62 54 59 66 57 48 31 38 40 36 40 47 26 31 27 24 25 27 26 28 19 15 20 18 18 38 44 43 40 26 52 56 58 55 63 81 96 98 75 87 86
58 51 43 46 44 52 31 25 31 32 36 44 44 31 34 23 23 22 24 29 28 31 20 19 11 14 18 26 37 42 52 57 63 78 83 83 94 88 105 94 52 69 87 89
37 40 46 47 46 40 37 37 34 34 38 36 38 28 28 28 23 22 32 26 24 31 25 15 22 30 24 43 47 53 62 67 72 78 80 79 84 94 94 92 91 76 70 67
46 53 50 44 42 40 40 38 35 31 40 32 31 26 27 27 33 28 24 26 23 29 21 30 37 37 41 55 65 68 69 69 69 69 72 86 82 77 76 70 67 62 56 54
45 42 44 41 43 48 43 38 33 36 32 25 19 20 29 30 35 32 25 24 27 30 28 26 40 46 54 64 68 74 68 69 71 73 68 65 64 62 56 54 52 53 53 48
46 47 52 47 45 49 43 44 44 48 43 20 12 23 30 32 26 30 28 28 31 36 36 41 42 51 61 66 71 73 73 69 70 66 61 58 54 50 49 46 53 54 53 47
50 47 54 58 52 47 48 47 43 43 32 15 20 27 29 29 28 29 29 27 32 25 39 42 45 56 61 65 67 66 62 63 61 57 58 51 47 46 43 51 57 59 53 45
52 55 55 55 56 54 48 48 44 34 21 21 27 30 32 32 29 28 29 32 34 40 36 40 46 51 55 58 57 55 54 54 53 58 57 53 44 50 52 56 62 61 57 51
57 61 61 56 53 55 43 41 36 25 19 30 32 33 34 26 33 35 30 38 39 34 36 40 42 46 48 47 46 46 44 46 47 53 55 51 43 43 50 55 55 56 58 56
Wind_Direction
271 275 281 283 286 290 295 293 287 300 273 273 274 268 276 280 281 289 292 295 291 292 300 295 295 293 301 315 317 305 307 299 291 292 296 296 296 294 295 286 286 286 283 280
269 270 273 277 279 282 292 290 297 307 288 272 271 278 271 278 281 285 288 290 298 300 296 294 295 294 298 304 308 306 308 299 293 293 300 303 295 294 300 297 295 285 285 284
268 268 269 271 272 272 285 290 283 295 289 291 278 276 279 276 288 283 279 282 289 290 290 294 292 292 299 302 299 299 300 294 291 291 294 295 289 290 295 294 288 289 286 291
266 265 265 267 269 268 281 287 287 292 279 279 281 278 285 279 281 289 291 292 287 290 292 293 293 294 298 302 302 301 299 292 294 292 294 295 292 290 289 287 288 287 288 289
262 259 257 260 266 268 273 282 289 288 292 292 286 276 282 284 286 290 291 288 294 294 291 292 293 295 296 297 300 300 302 296 297 291 294 294 291 289 289 288 287 288 289 288
254 254 251 252 253 269 279 282 293 291 290 289 287 287 285 289 291 293 288 289 288 290 290 292 295 295 294 294 295 296 296 297 299 292 297 296 289 290 289 291 291 292 291 293
253 251 250 250 248 262 283 283 286 286 281 285 286 292 291 289 289 288 292 295 293 294 299 299 296 293 292 291 290 287 290 293 295 294 297 288 296 302 299 296 296 297 296 295
252 251 251 253 256 260 276 286 284 284 283 286 287 288 289 291 292 291 292 291 289 292 293 298 299 302 302 296 289 286 279 288 293 292 290 294 293 296 297 298 295 296 295 299
253 255 257 257 259 261 273 277 284 286 285 283 287 291 293 291 293 296 296 297 299 294 290 290 291 294 304 306 309 313 299 286 287 293 293 292 295 304 309 310 299 304 303 301
253 258 261 262 265 265 274 282 277 284 283 286 290 290 294 296 298 298 301 304 306 304 291 289 289 290 295 294 297 302 301 297 284 287 290 293 299 302 305 296 302 308 315 314
256 260 264 268 270 272 273 281 277 280 284 283 288 289 286 289 290 293 305 308 305 301 294 296 296 296 296 295 294 299 295 297 295 295 292 293 308 302 291 300 304 308 310 311
258 264 268 271 273 274 276 279 281 282 282 285 294 286 281 278 281 292 294 295 301 313 308 305 308 303 306 301 298 300 295 288 295 289 292 301 304 304 304 307 303 301 302 301
261 265 269 273 275 276 276 280 286 288 285 281 282 288 292 273 268 274 284 294 293 295 296 302 300 297 303 301 300 301 299 300 293 296 292 292 298 298 298 297 301 287 299 299
268 267 269 271 273 276 278 279 284 284 290 285 285 298 289 289 260 247 237 248 304 305 303 296 296 296 302 298 300 300 297 304 303 299 296 301 296 300 304 297 299 298 296 298
267 269 271 272 272 275 278 277 281 279 280 288 294 296 296 313 302 246 238 254 278 292 299 298 298 303 302 300 300 280 274 286 297 299 305 302 296 287 301 299 299 302 300 296
268 267 266 270 273 276 284 287 286 252 260 287 287 293 295 296 287 274 266 268 284 286 302 302 304 301 307 311 307 266 308 307 301 297 299 305 290 282 296 300 292 297 300 299
266 263 262 264 268 272 273 279 296 323 305 283 291 293 303 303 301 299 295 294 294 293 298 297 300 304 306 313 306 258 315 318 312 310 308 306 307 307 304 304 304 302 299 299
264 262 262 262 266 265 260 235 239 262 285 287 287 295 305 316 311 311 314 315 311 307 306 315 317 319 314 312 272 324 328 326 316 319 322 310 312 315 310 306 304 303 301 300
268 265 265 269 273 271 269 275 256 269 270 291 288 292 299 318 310 315 319 324 318 326 320 331 348 335 319 305 331 333 334 339 326 335 331 328 324 320 316 310 281 309 304 305
267 269 270 272 273 274 284 280 276 268 272 275 285 297 302 314 319 317 324 314 320 326 351 9 17 330 312 319 329 342 340 339 336 328 326 326 318 321 306 278 282 266 265 265
265 266 265 271 281 269 266 270 267 269 278 280 277 281 293 288 303 313 287 323 340 331 352 12 2 352 4 346 345 343 338 336 333 328 325 325 323 289 290 288 291 272 265 262
267 265 271 274 266 263 264 263 271 277 275 282 275 278 275 276 272 293 310 323 337 333 6 340 338 347 351 338 333 338 342 341 340 339 334 318 319 323 318 318 319 316 333 337
265 262 261 262 256 255 261 259 266 266 281 281 279 270 260 270 272 290 310 326 325 336 337 341 335 339 338 336 337 338 347 349 347 343 344 342 337 334 331 334 335 354 359 358
254 252 252 252 252 255 260 264 264 259 263 278 251 263 274 274 285 294 308 318 325 321 321 327 337 339 333 338 338 342 348 356 350 354 1 358 351 349 353 353 11 15 17 19
251 251 250 248 250 260 262 263 265 260 260 250 258 279 285 284 294 300 306 318 318 331 328 330 338 335 335 339 342 350 359 3 3 15 12 4 5 10 10 18 28 35 35 35
250 249 249 250 249 255 260 257 260 264 253 255 271 283 289 291 299 302 302 310 313 323 334 339 338 341 341 343 352 2 8 14 18 30 32 32 27 36 39 38 39 39 41 42
244 242 243 249 252 252 260 258 261 257 239 260 274 279 287 309 302 301 309 309 317 328 335 339 343 343 348 359 8 15 20 30 36 41 41 39 34 35 37 37 34 37 41 42